Temp
14 14 13 13 13 13 13 12 12 12 12 12 12 12 11 11 11 11 10 10 10 10 9 9 9 8 8 8 8 8 8 8 8 8 8 8 8 8 7 7 7 7 7 6 6 6 6 6 6 6 5 5 5 5 5 5 5 5 5 4 4 4 4 4 4 4 4 3 3
14 13 13 13 13 13 13 12 12 12 12 12 12 12 11 11 11 11 10 10 10 9 9 9 8 8 8 8 8 8 8 8 8 8 8 8 7 7 7 7 7 7 6 6 6 6 6 5 5 5 5 5 5 5 5 5 5 4 4 4 4 4 4 3 3 3 3 3 3
13 13 13 13 13 13 13 12 12 12 12 12 11 11 11 11 11 10 10 9 9 9 9 8 8 8 8 8 8 8 8 8 8 8 8 7 7 7 7 7 7 6 6 6 6 5 5 5 5 5 5 5 5 5 5 5 4 4 4 4 4 4 3 3 3 3 3 3 3
13 13 13 13 13 13 13 13 12 12 12 12 11 11 11 10 10 10 9 9 9 8 8 8 8 8 8 8 8 8 7 7 8 8 7 7 7 7 7 7 6 6 6 5 5 5 5 5 5 5 5 5 5 4 4 4 4 4 4 4 3 3 3 3 3 3 3 3 3
13 13 13 13 13 13 13 13 12 12 11 11 11 11 10 10 9 9 9 8 8 8 8 8 8 8 7 7 7 7 7 7 7 7 7 7 7 7 7 6 6 6 5 5 5 5 5 5 5 5 4 4 4 4 4 4 4 4 4 3 3 3 3 3 3 3 2 2 2
12 12 12 13 13 13 12 12 12 11 11 11 10 10 10 9 9 9 8 8 8 8 8 8 7 7 7 7 7 7 7 7 7 7 7 7 7 7 6 6 6 5 5 5 5 5 5 4 4 4 4 4 4 4 4 4 4 4 3 3 3 3 3 3 2 2 2 2 2
12 12 12 12 12 12 12 11 11 11 10 10 10 10 9 9 8 8 8 8 8 8 8 7 7 7 7 7 7 7 7 7 7 7 7 7 7 6 6 6 5 5 5 5 5 4 4 4 4 4 4 4 4 4 4 4 3 3 3 3 3 3 2 2 2 2 2 2 2
12 12 12 12 12 11 11 11 10 10 10 10 9 9 9 8 8 8 8 8 8 7 7 7 7 7 7 7 7 7 7 7 7 7 7 6 6 6 6 5 5 5 5 5 4 4 4 4 4 4 4 4 4 4 4 3 3 3 3 3 3 2 2 2 2 2 2 2 2
12 12 12 11 11 11 10 10 10 10 9 9 9 9 8 8 8 8 8 8 7 7 7 7 7 7 7 7 7 7 7 7 7 7 6 6 6 6 5 5 5 5 5 4 4 4 4 4 4 4 4 4 4 3 3 3 3 3 3 3 2 2 2 2 2 2 2 2 2
11 11 11 11 10 10 10 10 9 9 9 9 9 8 8 8 8 8 8 7 7 7 7 7 7 7 7 7 7 7 7 7 6 6 6 6 5 5 5 5 5 4 4 4 4 4 4 4 4 4 4 4 3 3 3 3 3 3 3 2 2 2 2 2 2 2 2 2 1
11 11 10 10 10 10 9 9 9 9 9 9 8 8 8 8 8 8 7 7 7 7 7 7 7 7 7 7 7 7 6 6 6 6 6 5 5 5 5 4 4 4 4 4 4 4 4 4 4 4 3 3 3 3 3 3 3 3 3 2 2 2 2 2 2 2 2 1 1
10 10 10 10 9 9 9 9 9 9 8 8 8 8 8 8 7 7 7 7 7 7 7 7 7 7 7 7 7 6 6 6 6 5 5 5 5 5 4 4 4 4 4 4 4 4 4 4 3 3 3 3 3 3 3 3 3 3 2 2 2 2 2 2 2 2 1 1 1
10 10 10 9 9 9 9 9 9 8 8 8 8 7 7 7 7 7 7 7 7 7 7 7 7 7 7 6 6 6 6 6 5 5 5 5 5 4 4 4 4 4 4 4 4 4 3 3 3 3 3 3 3 3 3 3 3 2 2 2 2 2 2 2 2 2 1 1 1
10 9 9 9 9 9 9 8 8 8 8 8 7 7 7 7 7 7 7 7 7 7 7 7 7 7 6 6 6 6 5 5 5 5 5 5 4 4 4 4 4 4 4 4 3 3 3 3 3 3 3 3 3 3 3 3 2 2 2 2 2 2 2 2 2 1 1 1 0
9 9 9 9 9 8 8 8 8 8 8 7 7 7 7 7 7 7 7 7 7 7 7 7 7 6 6 6 6 5 5 5 5 5 4 4 4 4 4 4 4 4 3 3 3 3 3 3 3 3 3 3 3 3 2 2 2 2 2 2 2 2 2 2 1 1 1 0 0
9 9 8 8 8 8 8 8 8 8 7 7 7 7 7 7 7 7 7 7 7 7 7 7 6 6 6 6 5 5 5 5 5 4 4 4 4 4 4 4 4 3 3 3 3 3 3 3 3 3 3 2 2 2 2 2 2 2 2 2 2 2 2 1 1 1 1 0 -0
8 8 8 8 8 8 8 8 8 7 7 7 7 7 7 7 7 7 7 7 7 7 7 6 6 6 6 5 5 5 5 5 4 4 4 4 4 4 4 3 3 3 3 3 3 3 3 3 3 2 2 2 2 2 2 2 2 2 2 2 2 2 2 1 1 1 0 0 -0
8 8 8 8 8 8 8 7 7 7 7 7 7 7 7 7 7 7 7 7 7 6 6 6 6 5 5 5 5 5 5 4 4 4 4 4 4 4 3 3 3 3 3 3 3 3 3 2 2 2 2 2 2 2 2 2 2 2 2 2 2 2 1 1 1 1 0 0 -0
8 8 8 8 8 8 8 7 7 7 7 7 7 7 7 7 7 7 7 6 6 6 6 6 5 5 5 5 5 5 4 4 4 4 4 4 3 3 3 3 3 3 3 3 3 2 2 2 2 2 2 2 2 2 2 2 2 2 2 2 2 1 1 1 1 0 0 -0 -0
8 8 7 8 8 7 7 7 7 7 7 7 7 7 7 7 7 6 6 6 6 6 6 5 5 5 5 5 4 4 4 4 4 4 4 3 3 3 3 3 3 3 3 2 2 2 2 2 2 2 2 2 2 2 2 2 2 2 2 2 1 1 1 1 1 0 0 -0 -0
8 7 7 7 7 7 7 7 7 7 7 7 7 7 6 6 6 6 6 6 6 5 5 5 5 5 5 4 4 4 4 4 4 4 3 3 3 3 3 3 3 2 2 2 2 2 2 2 2 2 2 2 2 2 2 2 2 2 2 1 1 1 1 1 1 0 0 -0 -0
7 7 7 7 7 7 7 7 7 7 7 6 6 6 6 6 6 6 6 5 5 5 5 5 5 4 4 4 4 4 4 4 4 3 3 3 3 3 3 2 2 2 2 2 2 2 2 1 2 2 2 2 2 2 2 2 2 2 1 1 1 1 1 1 1 0 0 -0 -0
7 7 7 7 7 7 7 7 7 6 6 6 6 6 6 6 6 5 5 5 5 5 5 5 4 4 4 4 4 4 4 3 3 3 3 3 3 3 2 2 2 2 2 2 1 1 1 1 2 2 2 2 2 2 2 2 1 1 1 1 1 1 1 1 0 0 0 -0 -0
7 7 7 7 7 7 7 6 6 6 6 6 6 6 6 6 5 5 5 5 5 5 5 4 4 4 4 4 4 3 3 3 3 3 3 3 2 2 2 2 2 2 2 1 1 1 1 1 2 2 2 2 2 2 2 1 1 1 1 1 1 1 1 0 0 0 0 -0 -0
7 7 7 7 6 6 6 6 6 6 6 6 6 6 5 5 5 5 5 5 5 5 4 4 4 4 4 4 3 3 3 3 3 3 2 2 2 2 2 2 2 1 1 1 1 1 1 1 2 2 2 2 2 1 1 1 1 1 1 1 1 1 0 0 0 0 -0 -0 -0
7 6 6 6 6 6 6 6 6 6 6 6 5 5 5 5 5 5 5 5 4 4 4 4 4 4 4 3 3 3 3 3 2 2 2 2 2 2 2 2 1 1 1 1 1 1 1 1 2 2 2 1 1 1 1 1 1 1 1 1 0 0 0 0 0 -0 -0 -0 -1
6 6 6 6 6 6 6 6 5 5 5 5 5 5 5 5 5 5 5 4 4 4 4 4 4 4 3 3 3 3 3 2 2 2 2 2 2 2 2 1 1 1 1 1 1 1 1 1 1 1 1 1 1 1 1 1 1 1 0 0 0 0 -0 -0 -0 -0 -0 -0 -1
6 6 6 6 5 5 5 5 5 5 5 5 5 5 5 5 5 5 4 4 4 4 4 4 3 3 3 3 3 2 2 2 2 2 2 2 2 1 1 1 1 1 1 1 1 1 1 1 1 1 1 1 1 1 1 1 0 0 0 0 -0 -0 -0 -0 -0 -0 -0 -1 -1
5 5 5 5 5 5 5 5 5 5 5 5 5 5 4 4 4 4 4 4 4 4 4 3 3 3 3 3 2 2 2 2 2 2 2 1 1 1 1 1 1 1 1 1 1 1 1 1 1 1 1 1 1 1 0 0 0 0 -0 -0 -0 -0 -0 -0 -0 -0 -1 -1 -1
5 5 5 5 5 5 5 5 5 5 5 4 4 4 4 4 4 4 4 4 4 3 3 3 3 3 3 2 2 2 2 2 2 1 1 1 1 1 1 1 1 1 1 0 0 1 1 1 1 1 1 1 1 0 0 0 -0 -0 -0 -0 -0 -0 -0 -0 -0 -1 -1 -1 -1
5 5 5 5 5 5 5 5 5 4 4 4 4 4 4 4 4 4 4 4 3 3 3 3 3 2 2 2 2 2 2 1 1 1 1 1 1 1 1 1 1 1 0 0 0 0 1 1 1 0 0 0 0 0 -0 -0 -0 -0 -0 -0 -0 -0 -0 -1 -1 -1 -1 -1 -2
5 5 5 5 5 4 4 4 4 4 4 4 4 4 4 4 4 4 3 3 3 3 3 3 2 2 2 2 2 2 1 1 1 1 1 1 1 1 1 1 1 0 0 0 0 0 0 0 0 0 0 0 0 -0 -0 -0 -0 -1 -1 -1 -0 -0 -1 -1 -1 -1 -1 -2 -2
5 5 4 4 4 4 4 4 4 4 4 4 4 4 4 4 4 3 3 3 3 3 2 2 2 2 2 2 1 1 1 1 1 1 1 1 1 1 1 1 0 0 -0 -0 -0 0 0 0 0 0 0 -0 -0 -0 -1 -1 -1 -1 -1 -1 -1 -1 -1 -1 -1 -1 -2 -2 -2
4 4 4 4 4 4 4 4 4 4 4 4 4 4 4 3 3 3 3 3 3 2 2 2 2 2 1 1 1 1 1 1 1 1 1 1 1 1 0 0 0 0 -0 -0 -0 -0 -0 -0 -0 -0 -0 -0 -1 -1 -1 -1 -1 -1 -1 -1 -1 -1 -1 -1 -1 -2 -2 -2 -2
4 4 4 4 4 4 4 4 4 4 4 4 4 3 3 3 3 3 3 2 2 2 2 2 2 1 1 1 1 1 1 1 1 1 1 1 1 0 0 0 0 -0 -0 -1 -1 -1 -0 -0 -0 -0 -0 -1 -1 -1 -1 -1 -1 -1 -1 -1 -1 -1 -1 -1 -2 -2 -2 -2 -2
4 4 4 4 4 4 4 4 4 4 4 4 3 3 3 3 3 2 2 2 2 2 2 1 1 1 1 1 1 1 1 1 1 1 1 0 0 0 -0 -0 -0 -0 -0 -1 -1 -1 -1 -1 -1 -1 -1 -1 -1 -1 -1 -1 -1 -1 -1 -1 -1 -1 -2 -2 -2 -2 -2 -2 -2
4 4 4 4 4 4 4 4 4 4 3 3 3 3 3 3 2 2 2 2 2 2 1 1 1 1 1 1 1 1 1 1 1 0 0 0 0 -0 -0 -0 -1 -1 -1 -1 -1 -1 -1 -1 -1 -1 -1 -1 -1 -1 -2 -2 -2 -2 -2 -2 -2 -2 -2 -2 -2 -2 -2 -2 -2
4 4 4 4 4 4 4 3 3 3 3 3 3 3 2 2 2 2 2 2 1 1 1 1 1 1 1 1 1 1 1 1 1 0 0 0 -0 -0 -1 -1 -1 -1 -1 -1 -1 -1 -1 -1 -1 -1 -1 -1 -1 -2 -2 -2 -2 -2 -2 -2 -2 -2 -2 -2 -2 -2 -2 -2 -2
4 4 4 4 4 3 3 3 3 3 3 3 3 2 2 2 2 2 1 1 1 1 1 1 1 1 1 1 1 1 1 1 0 0 -0 -0 -0 -1 -1 -1 -1 -1 -1 -1 -1 -1 -1 -1 -1 -1 -1 -1 -1 -2 -2 -2 -2 -2 -2 -2 -2 -2 -2 -2 -2 -2 -2 -2 -2
3 3 3 3 3 3 3 3 3 3 2 2 2 2 2 2 2 1 1 1 1 1 1 1 1 1 1 1 0 0 0 0 0 0 -0 -0 -1 -1 -1 -1 -1 -1 -1 -1 -1 -1 -1 -1 -1 -1 -1 -1 -1 -2 -2 -2 -2 -2 -2 -2 -2 -2 -2 -2 -2 -2 -2 -2 -2
3 3 3 3 3 3 3 3 3 2 2 2 2 2 2 1 1 1 1 1 1 1 1 1 1 1 1 0 0 0 0 -0 -0 -0 -0 -1 -1 -1 -1 -1 -1 -1 -1 -1 -1 -2 -2 -1 -1 -1 -1 -1 -1 -2 -2 -2 -2 -2 -2 -2 -2 -2 -2 -2 -2 -2 -2 -3 -3
Height
774 775 776 777 778 780 780 782 783 784 784 785 785 786 786 787 787 788 788 789 789 789 790 790 790 790 790 789 789 789 789 789 788 788 787 787 787 786 786 785 785 784 784 783 783 782 781 780 780 779 778 777 776 775 775 774 773 773 772 771 770 770 769 768 767 767 766 765 765
774 775 776 777 778 779 780 781 782 783 784 785 785 786 786 787 787 788 788 789 789 789 789 789 789 789 789 789 789 789 788 788 788 787 787 786 786 786 785 785 784 784 783 783 782 781 781 780 779 778 777 776 776 775 774 774 773 772 771 770 770 769 768 767 767 766 765 765 764
774 775 776 777 778 779 780 781 782 783 784 784 785 785 786 786 787 788 788 788 789 789 789 789 789 789 789 789 789 788 788 788 787 787 786 786 785 785 785 784 784 783 783 782 781 781 780 779 779 778 777 776 775 774 774 773 772 771 770 770 769 768 767 767 766 765 765 764 763
774 775 776 777 778 779 780 781 782 783 783 784 785 785 786 786 787 787 788 788 789 789 789 789 789 789 789 788 788 788 787 787 787 786 786 785 785 785 784 784 783 782 782 781 781 780 780 779 778 777 776 775 775 774 773 772 771 770 770 769 768 767 766 766 765 764 764 763 762
774 775 776 777 778 779 780 781 782 782 783 784 784 785 786 786 787 787 788 788 788 789 789 789 789 788 788 788 788 787 787 787 786 786 785 785 784 784 783 783 782 782 781 781 780 780 779 778 777 776 776 775 774 773 772 771 770 770 769 768 767 767 766 765 764 763 762 761 761
774 775 776 777 778 779 780 781 782 782 783 784 784 785 785 786 787 787 788 788 788 788 788 788 788 788 788 788 787 787 786 786 786 785 785 784 784 783 783 782 782 781 781 780 780 779 778 777 777 776 775 774 773 772 772 771 770 769 768 767 766 765 765 764 763 762 761 760 760
774 775 776 777 778 779 780 781 782 782 783 784 784 785 785 786 787 787 787 788 788 788 788 788 788 788 787 787 787 786 786 785 785 785 784 784 783 783 782 782 781 781 780 780 779 778 778 777 776 775 774 773 772 771 770 770 769 768 767 766 765 765 764 763 762 761 760 759 758
774 775 776 777 778 779 780 781 781 782 783 784 784 785 785 786 786 787 787 787 787 787 788 787 787 787 787 787 786 786 785 785 785 784 784 783 783 782 782 781 781 780 780 779 778 778 777 776 775 774 773 772 771 770 770 769 768 767 766 765 764 763 763 762 761 760 759 758 757
774 775 776 777 778 779 780 781 781 782 783 784 785 785 785 786 786 787 787 787 787 787 787 787 787 787 787 786 786 786 785 785 784 784 783 783 782 782 781 780 780 780 779 778 778 777 776 775 774 773 772 771 770 770 769 768 767 766 765 764 763 762 761 761 760 759 758 757 756
774 775 776 777 778 779 780 781 781 782 783 784 784 785 785 786 786 787 787 787 787 787 787 787 787 787 786 786 786 785 785 784 784 783 783 782 782 781 781 780 780 779 778 778 777 776 775 774 773 772 771 770 770 769 768 767 766 765 764 763 762 761 760 759 759 758 757 756 755
774 775 776 777 778 779 780 780 781 782 783 784 784 785 785 786 786 786 786 787 787 787 787 787 787 786 786 786 785 785 785 784 783 783 782 782 781 781 780 780 779 778 777 777 776 775 774 773 772 771 770 769 769 767 766 765 765 764 763 762 761 760 759 758 757 757 756 755 754
774 775 776 777 778 779 780 780 781 782 783 783 784 785 785 785 786 786 786 786 786 786 786 786 786 786 786 785 785 785 784 783 783 782 782 781 781 780 780 779 778 778 777 776 775 774 773 772 771 770 769 768 767 766 765 765 764 762 761 760 760 759 758 757 756 755 755 754 753
774 775 776 777 778 779 780 780 781 782 782 783 784 784 785 785 785 786 786 786 786 786 786 786 786 786 785 785 785 784 784 783 782 782 781 781 780 780 779 778 777 777 776 775 774 773 772 771 770 769 768 767 766 765 765 764 762 761 760 759 758 757 756 755 755 754 754 753 752
774 775 776 777 778 779 780 780 781 782 782 783 784 784 785 785 785 785 785 786 786 786 786 786 785 785 785 785 784 784 783 782 782 781 780 780 780 779 778 777 777 776 775 774 773 772 771 770 769 768 767 766 765 764 763 763 762 760 760 758 757 756 755 755 754 753 752 751 751
775 775 776 777 778 779 780 780 781 781 782 783 783 784 784 785 785 785 785 785 785 785 785 785 785 785 785 784 784 783 783 782 781 780 780 779 779 778 777 777 776 775 774 773 772 771 770 769 768 767 766 765 764 763 762 761 760 760 759 758 756 755 754 754 753 752 751 750 750
775 775 776 777 778 779 780 780 781 781 782 783 783 784 784 784 785 785 785 785 785 785 785 785 785 785 784 784 783 783 782 781 780 780 779 779 778 777 777 776 775 774 773 772 771 770 769 768 767 766 765 764 763 762 761 760 760 759 758 757 756 755 754 752 752 751 750 749 748
775 776 777 777 778 779 779 780 780 781 782 782 783 783 784 784 784 785 785 785 785 785 785 785 784 784 784 783 783 782 781 780 780 779 779 778 778 777 776 775 774 773 772 771 770 769 768 767 766 765 764 763 762 761 760 759 758 757 756 755 755 754 752 751 751 750 749 748 747
775 776 777 777 778 779 779 780 780 781 782 782 783 783 783 784 784 784 785 785 785 784 784 784 784 784 783 783 782 781 781 780 779 779 778 778 777 776 775 775 774 773 771 770 769 768 767 766 765 764 763 762 761 760 759 758 757 756 755 754 753 752 751 750 750 749 748 747 746
775 776 777 777 778 779 779 780 780 781 781 782 782 783 783 784 784 784 784 784 784 784 784 784 783 783 782 782 781 781 780 780 779 778 778 777 776 776 775 774 773 771 770 769 768 767 766 765 764 763 762 761 760 759 758 757 756 755 754 753 752 751 750 749 749 748 747 746 745
775 776 777 778 778 779 779 780 780 781 781 782 782 783 783 783 784 784 784 784 784 784 784 783 783 782 782 781 781 780 780 779 778 778 777 776 776 775 774 773 772 770 770 768 767 766 765 764 763 761 760 760 759 757 756 755 755 754 753 752 751 750 749 748 747 746 745 745 744
776 776 777 778 778 779 779 780 780 781 781 782 782 782 783 783 783 784 784 784 784 784 783 783 782 782 781 780 780 780 779 778 778 777 776 776 775 774 773 772 771 770 768 767 766 765 764 763 761 760 760 759 758 756 755 754 753 752 751 750 749 749 748 747 746 745 744 743 742
776 776 777 778 778 779 779 780 780 781 781 781 782 782 783 783 783 784 784 784 783 783 783 782 782 781 781 780 780 779 778 778 777 777 776 775 774 773 772 771 770 769 767 766 765 764 763 761 760 760 759 758 756 755 755 753 752 751 750 749 748 747 746 745 745 744 743 742 741
776 777 777 778 778 779 779 780 780 780 781 781 782 782 783 783 783 783 783 783 783 783 783 782 781 781 780 780 779 778 778 777 776 776 775 774 773 772 771 770 769 768 766 765 764 763 762 761 760 759 758 757 755 754 753 752 751 750 748 747 746 745 745 744 743 742 741 740 740
776 777 777 778 778 779 779 780 780 780 781 781 782 782 783 783 783 783 783 783 783 782 782 781 781 780 780 779 779 778 777 776 776 775 774 773 772 771 770 769 768 767 765 765 764 763 762 760 759 758 757 756 755 753 752 751 750 748 747 746 745 744 743 742 742 741 740 739 738
776 777 777 778 778 779 779 780 780 780 781 781 782 782 782 783 783 783 783 783 782 782 781 781 780 780 779 778 778 777 777 776 775 774 773 772 771 770 769 768 767 766 765 764 763 762 762 760 759 758 756 755 753 752 750 750 748 747 746 745 744 742 741 740 740 739 739 738 737
776 777 777 778 778 779 779 780 780 780 781 781 781 782 782 782 782 782 782 782 782 781 781 780 780 779 778 778 777 777 776 775 775 774 773 771 770 769 768 767 766 765 764 763 762 762 760 760 759 757 755 754 752 750 749 748 747 746 745 744 742 741 740 739 738 737 737 736 735
776 777 777 778 779 779 779 780 780 781 781 781 781 782 782 782 782 782 782 781 781 781 780 780 779 778 778 777 777 776 775 775 774 773 772 771 770 768 767 766 765 764 763 763 762 761 760 759 757 756 755 753 751 750 748 746 745 745 744 742 741 740 739 738 737 735 735 734 734
776 777 778 778 779 779 780 780 780 781 781 781 781 781 782 782 781 781 781 781 780 780 780 779 778 778 777 777 776 775 775 774 773 772 771 770 769 768 766 765 765 764 763 762 761 760 759 757 756 755 754 752 750 749 747 746 744 743 742 741 740 739 738 737 735 734 733 732 732
777 777 778 778 779 779 780 780 780 781 781 781 781 781 781 781 781 781 780 780 780 779 779 778 778 777 777 776 776 775 774 773 772 771 770 769 768 767 766 765 764 763 762 761 760 759 758 756 755 754 752 751 750 748 746 745 744 742 741 740 739 738 737 735 734 733 732 731 731
777 777 778 778 779 779 780 780 780 780 781 781 781 781 781 781 781 780 780 780 779 779 778 778 777 777 776 776 775 774 773 772 771 770 769 768 767 766 765 764 763 762 761 760 759 758 757 755 754 753 751 750 749 747 745 744 743 742 740 739 738 737 735 734 733 732 731 731 730
777 777 778 778 779 779 780 780 780 780 781 781 781 781 781 780 780 780 780 779 779 778 778 777 777 776 776 775 774 773 772 771 770 769 768 767 766 765 764 763 762 761 760 759 758 757 756 754 753 751 750 749 747 746 745 743 742 741 740 738 737 735 735 733 732 732 731 730 729
777 777 778 778 779 779 779 780 780 780 781 781 781 780 780 780 780 780 779 779 778 778 777 777 776 776 775 774 773 772 771 770 769 768 767 766 765 764 763 762 761 760 759 758 757 756 755 753 752 750 749 748 746 745 744 743 741 740 739 737 736 735 734 733 732 731 730 730 729
777 778 778 778 779 779 779 780 780 780 780 780 780 780 780 780 780 779 779 778 778 777 777 777 776 775 775 773 772 771 770 769 768 767 767 766 765 764 762 761 760 760 759 758 756 755 754 752 751 749 748 747 745 744 743 742 740 739 738 736 735 734 733 732 731 730 730 729 728
778 778 778 778 779 779 780 780 780 780 780 780 780 780 780 780 779 779 778 778 778 777 777 776 776 775 774 773 772 770 770 768 768 767 766 765 764 763 762 760 760 759 758 757 755 754 753 751 750 749 747 746 745 743 742 740 739 738 737 735 734 733 732 731 731 730 729 728 727
778 778 778 778 779 779 780 780 780 780 780 780 780 780 779 779 779 778 778 778 777 777 776 776 775 774 773 772 771 770 769 768 767 766 765 764 763 762 761 760 759 758 757 756 755 753 752 750 749 748 746 745 744 742 741 740 738 737 736 735 734 733 732 731 730 729 728 727 725
778 778 779 779 779 780 780 780 780 780 780 780 779 779 779 779 779 778 778 777 777 776 775 775 774 773 772 771 770 769 768 767 766 765 764 763 762 761 760 759 758 757 756 755 753 752 751 750 748 747 745 744 743 742 740 739 738 736 735 734 733 732 731 730 729 728 727 725 724
778 779 779 779 779 780 780 780 780 780 779 779 779 779 779 778 778 778 778 777 776 775 775 774 773 772 771 770 769 768 767 766 765 764 763 762 761 760 759 758 757 755 755 753 752 751 750 749 748 746 745 744 742 741 740 738 737 735 734 733 732 731 730 729 728 726 725 724 723
778 779 779 779 780 780 780 780 779 779 779 779 779 779 778 778 778 778 777 777 776 775 774 773 772 771 770 769 768 767 766 765 765 764 762 761 760 760 758 757 755 755 754 752 751 750 749 748 747 746 745 743 741 740 739 737 736 735 734 732 731 730 729 728 726 725 723 722 720
779 779 779 779 779 779 779 779 779 779 779 779 779 778 778 778 778 777 777 776 775 775 774 772 771 770 769 769 767 766 765 765 764 763 762 761 760 759 757 756 755 753 752 751 750 750 749 748 746 745 744 743 741 740 738 737 735 734 733 731 730 728 727 726 725 723 721 720 718
779 779 779 779 779 779 779 779 779 779 779 779 778 778 778 778 777 777 776 775 775 774 773 772 770 770 769 768 767 765 764 764 763 762 761 760 759 758 756 755 754 752 751 750 750 749 748 747 746 745 743 742 740 739 738 736 735 733 732 730 729 727 725 724 723 721 719 717 716
779 779 779 779 779 779 779 779 779 779 779 779 778 778 778 777 777 776 775 775 774 773 772 771 770 769 768 767 766 765 764 762 762 761 760 759 758 757 755 754 752 751 750 750 749 748 747 746 745 744 742 741 740 739 737 736 734 732 730 729 728 726 724 722 720 719 718 716 715
Wind_Speed
24 23 23 22 21 20 19 17 15 14 13 12 11 10 9 9 8 7 6 5 4 4 3 3 2 1 1 1 2 2 3 4 5 5 6 7 8 8 9 10 10 11 12 13 14 14 15 16 17 18 19 19 20 20 21 21 22 22 22 23 23 23 23 22 22 22 22 22 22
24 23 22 22 20 19 18 16 15 13 12 10 9 9 8 8 7 7 6 5 5 4 3 2 2 1 1 1 2 2 3 4 5 6 7 7 8 9 10 10 11 12 13 14 14 15 16 17 18 19 19 20 21 21 21 22 22 23 23 23 23 23 23 22 22 22 22 22 22
23 22 21 20 19 18 17 16 14 12 11 10 9 8 8 7 7 7 6 6 5 4 3 2 2 1 0 1 2 3 4 5 6 7 7 8 9 10 10 11 12 13 13 14 15 16 17 18 19 20 20 21 21 22 22 23 23 23 24 24 24 24 23 22 22 22 22 22 22
22 21 20 19 18 17 16 15 14 12 11 10 9 9 8 7 7 7 6 6 5 4 3 2 2 1 1 2 3 4 5 6 7 7 8 9 10 11 11 12 13 14 14 15 16 17 18 19 20 20 21 21 22 22 23 23 24 24 24 24 24 24 23 23 23 22 22 23 23
21 20 19 18 17 16 15 14 13 12 11 10 9 9 8 7 7 6 6 6 5 4 3 2 1 0 1 3 4 5 6 6 7 8 9 10 11 12 12 13 14 15 15 16 17 18 19 20 20 21 21 22 22 23 23 24 24 25 25 25 24 24 23 23 23 23 23 23 23
21 19 18 17 16 15 14 14 13 12 11 10 9 8 8 7 7 6 6 5 5 4 3 2 1 1 2 4 5 6 6 7 8 9 10 11 12 12 13 14 15 16 16 17 18 19 20 20 21 21 21 22 22 23 23 24 24 25 25 25 25 24 24 23 24 24 24 24 23
20 19 18 17 16 15 14 13 12 11 10 9 9 8 8 7 7 6 6 5 4 3 2 1 1 2 4 5 5 6 7 8 8 9 10 11 12 13 14 15 16 16 17 18 19 19 20 21 21 22 22 22 23 23 24 24 25 25 26 26 25 24 24 24 24 25 24 24 22
20 19 18 16 15 15 14 13 12 11 10 9 9 9 8 8 7 6 5 4 4 3 2 2 2 3 4 5 6 7 7 8 9 10 11 12 13 14 15 16 17 17 18 19 20 20 21 21 21 22 23 23 24 24 24 25 25 25 26 26 25 25 24 25 25 25 24 23 21
19 18 17 15 14 13 13 12 11 10 9 9 9 9 8 8 7 6 5 4 4 3 2 2 3 4 5 5 6 7 8 9 10 11 12 13 14 15 16 17 18 18 19 19 20 21 21 22 22 22 23 24 24 25 25 25 25 26 26 26 25 25 26 26 26 25 23 22 20
18 17 16 15 14 13 12 11 10 10 10 10 10 9 9 8 7 6 5 4 4 3 3 3 4 4 5 5 6 7 8 9 10 11 12 13 14 15 17 18 19 19 20 20 21 21 22 22 23 23 24 24 25 25 25 25 26 26 26 25 26 26 27 26 26 24 22 21 20
18 17 16 15 13 12 12 11 11 10 10 10 10 9 9 8 7 6 5 4 3 3 3 3 4 4 5 5 6 7 8 9 11 12 13 14 15 16 17 18 19 20 21 21 21 22 23 23 24 25 25 25 25 25 26 26 26 26 26 26 26 27 27 26 25 24 22 20 20
18 17 15 14 13 13 12 11 11 11 10 10 9 9 8 7 6 5 4 3 3 3 3 3 3 4 5 6 7 8 9 10 11 12 14 15 16 17 18 19 20 21 21 22 22 23 23 24 25 25 26 26 26 26 26 26 26 26 26 26 26 26 26 26 25 23 21 20 20
18 17 16 15 14 13 12 12 11 11 10 9 9 8 7 6 5 4 4 3 3 2 2 2 3 4 5 6 7 8 9 11 12 13 14 16 17 18 19 20 21 21 22 22 23 23 24 25 25 26 26 26 26 26 26 26 26 26 26 26 26 26 26 25 24 22 21 20 19
18 17 16 15 14 13 13 12 11 11 10 9 8 7 7 6 5 4 3 2 2 2 1 2 3 4 5 6 8 9 10 12 13 14 15 17 18 19 20 21 21 22 23 23 24 24 25 25 26 26 26 27 27 26 26 26 26 26 26 26 26 26 26 24 23 21 20 19 19
18 17 16 15 14 13 13 12 11 11 10 9 8 7 6 5 4 3 2 2 1 1 1 2 3 4 6 7 8 10 11 13 14 15 16 18 19 20 21 22 22 23 23 24 24 24 25 25 26 26 26 26 26 26 26 26 25 25 25 25 25 25 25 23 22 20 19 19 19
18 16 15 15 14 13 12 12 11 10 9 8 7 6 6 5 4 3 2 1 0 1 2 3 4 5 6 8 9 11 12 13 15 16 17 19 20 21 22 22 23 23 24 24 25 25 25 25 25 25 26 26 26 26 26 25 25 25 25 25 24 24 23 22 21 19 19 19 19
17 16 15 14 14 13 12 11 10 10 9 8 7 6 5 4 3 2 2 1 1 1 3 4 5 6 8 9 10 12 13 14 16 17 18 19 21 21 22 23 23 24 24 24 25 25 26 25 25 25 25 25 25 25 25 25 25 25 25 24 24 23 22 21 20 19 19 19 20
17 16 15 14 13 12 11 11 10 9 8 7 7 6 5 4 3 3 2 1 1 2 4 5 6 7 9 10 11 12 14 15 17 18 19 20 21 22 22 23 23 24 24 24 25 25 26 26 25 25 25 25 25 25 25 25 25 25 25 24 24 23 22 21 20 19 19 20 20
16 16 15 14 13 12 11 10 9 9 8 7 6 6 5 4 3 3 2 1 2 3 5 6 7 8 10 11 12 13 15 16 17 18 19 20 21 22 22 23 23 24 24 25 25 25 25 26 25 25 25 25 25 25 25 25 25 25 25 24 24 23 22 21 20 20 20 20 21
16 15 14 13 12 11 11 10 9 8 8 7 6 5 5 4 3 2 1 1 2 4 5 7 8 9 10 12 13 14 16 17 18 19 20 20 21 21 22 23 23 24 24 25 25 25 25 25 25 25 25 25 25 25 25 25 25 25 25 24 24 23 22 21 21 21 21 21 21
15 14 14 13 12 11 10 10 9 8 7 6 6 5 4 3 2 1 1 2 3 4 6 7 9 10 12 13 14 16 17 17 18 19 20 20 21 21 22 23 23 24 25 25 25 25 25 25 25 25 25 25 25 25 25 25 25 25 25 25 24 23 23 22 22 22 22 22 22
15 14 13 12 12 11 10 9 8 8 7 6 5 4 3 2 1 1 1 2 4 5 6 8 9 11 12 14 15 17 18 18 19 19 20 20 21 21 22 23 24 24 25 25 25 25 25 25 25 25 25 25 25 25 25 25 26 26 26 25 25 24 24 23 23 23 23 23 22
15 14 13 12 11 10 10 9 8 7 6 5 5 4 3 2 1 1 2 3 5 6 7 9 10 12 13 15 16 17 18 19 19 19 19 20 21 21 22 23 24 25 25 25 25 25 25 25 25 25 24 24 25 25 25 26 26 26 26 26 26 25 25 24 24 24 23 23 23
14 14 13 12 11 10 9 8 8 7 6 5 4 3 2 1 1 2 3 4 6 7 8 10 11 13 14 15 16 17 18 19 19 20 20 20 21 22 23 24 24 25 25 25 24 23 23 24 24 24 24 25 25 25 26 26 26 26 26 26 26 26 25 25 25 24 24 24 23
14 13 12 11 10 9 9 8 7 6 5 5 4 3 2 0 1 3 4 5 7 8 9 11 12 14 15 16 17 17 18 18 19 20 21 21 22 23 23 24 25 25 25 25 23 23 23 23 24 24 25 25 26 26 26 26 26 26 26 26 26 26 26 26 26 25 25 25 24
13 13 12 11 10 9 8 7 6 6 5 4 3 2 1 1 2 4 5 6 8 9 10 12 13 15 16 16 17 17 18 18 19 20 21 22 23 24 24 25 25 26 25 24 23 23 23 23 23 24 25 26 26 26 26 26 26 26 26 26 26 26 26 27 27 27 26 25 23
13 12 11 10 9 8 7 6 5 5 4 3 2 1 1 2 3 5 6 7 9 10 11 13 14 15 16 17 17 18 18 19 19 20 21 22 23 24 25 25 26 26 26 25 24 23 24 24 24 24 25 26 26 27 26 27 27 26 26 26 26 26 26 27 27 27 26 25 23
12 11 10 9 9 7 6 6 5 4 3 2 1 1 2 3 4 6 7 8 10 11 12 14 15 15 16 17 17 18 19 19 20 21 22 22 23 24 25 26 26 26 26 25 23 23 24 24 25 25 25 26 26 26 26 26 26 26 26 26 26 27 27 27 27 27 26 24 22
11 11 10 9 8 7 6 5 4 3 2 0 1 2 3 4 5 6 8 9 11 12 14 15 15 16 17 17 18 19 19 20 21 21 22 23 24 25 25 26 26 27 26 25 23 23 24 24 25 25 26 26 26 26 26 25 26 26 26 26 27 27 28 28 27 26 24 22 20
10 10 9 8 8 7 6 4 3 2 1 1 2 3 4 5 6 7 9 10 12 13 14 15 16 16 17 18 19 20 20 21 22 22 23 24 25 25 26 26 26 27 26 24 23 23 24 25 25 25 26 26 26 26 25 25 26 26 27 27 27 28 28 27 26 24 22 20 19
10 9 9 8 8 7 5 4 3 2 1 2 3 4 4 5 6 8 9 11 12 13 14 15 16 17 18 19 19 20 21 22 22 23 24 24 25 26 26 26 26 26 25 24 23 24 24 25 25 26 26 27 26 26 25 26 26 27 27 27 27 27 26 24 22 20 19 19 19
9 9 8 8 7 6 5 4 3 2 2 3 3 4 5 6 7 8 10 11 12 14 14 15 17 18 19 20 20 21 22 23 23 24 24 25 25 26 26 26 26 26 25 23 23 24 24 25 25 26 26 26 26 25 26 26 26 27 26 26 25 24 23 21 19 18 18 18 19
8 8 8 8 7 6 5 4 3 2 2 3 3 4 5 7 8 9 10 11 13 14 15 16 18 19 20 21 22 22 23 23 24 24 24 25 25 26 26 26 26 25 24 23 23 24 24 25 25 26 26 26 26 25 26 26 26 26 25 24 23 21 19 18 17 17 18 19 20
8 8 7 7 6 5 4 3 2 2 2 3 4 5 6 7 9 10 11 12 13 15 16 17 18 19 20 21 22 23 23 24 24 24 25 25 25 25 26 26 25 25 24 24 23 23 24 24 25 25 26 26 25 25 25 26 25 25 24 23 21 20 18 17 17 18 19 20 22
7 7 6 6 5 4 3 2 1 1 2 3 4 6 7 8 9 11 12 13 14 15 17 18 18 19 20 21 21 22 23 24 24 25 25 25 25 25 25 25 25 25 25 24 23 23 23 24 24 25 25 25 24 24 25 25 24 23 22 22 21 20 19 19 19 20 20 21 23
6 6 5 5 4 3 2 0 1 2 3 5 6 7 8 9 10 11 12 14 15 17 18 19 19 20 21 22 22 23 23 24 25 25 25 25 25 25 25 25 25 25 25 24 23 23 23 24 24 24 25 24 24 24 24 23 23 22 22 22 21 21 21 21 21 22 22 22 23
5 5 4 4 3 2 1 1 2 4 5 6 7 8 9 10 11 12 13 14 16 18 19 20 20 21 21 22 23 23 23 24 24 25 25 25 24 25 25 25 25 25 25 24 23 22 22 23 23 24 24 24 24 24 23 23 22 22 22 22 22 22 22 22 22 23 23 23 24
5 4 4 3 2 2 2 3 4 5 6 7 7 8 9 10 12 13 14 15 17 18 19 20 20 21 21 22 23 23 23 23 24 24 24 24 24 24 24 24 24 25 25 24 23 22 22 23 23 23 24 24 23 23 23 22 22 22 22 22 22 22 22 22 22 23 24 25 25
4 4 3 3 3 3 4 4 5 6 6 7 8 9 10 11 13 14 15 16 17 18 19 20 20 21 21 22 23 23 24 23 23 23 24 24 24 24 24 24 24 24 24 24 23 22 22 22 23 23 23 23 23 23 23 22 22 22 22 22 23 23 23 22 22 24 25 26 26
4 4 4 4 4 4 4 5 5 6 7 7 8 10 11 12 13 14 15 16 17 18 18 19 20 21 21 22 23 24 24 24 23 23 23 24 24 23 23 23 24 24 24 24 23 22 21 22 22 23 23 23 23 22 22 22 22 22 22 22 23 23 23 23 23 24 26 27 26
5 4 4 4 4 5 5 5 6 6 7 8 9 10 12 13 14 15 16 16 17 17 18 19 20 21 21 22 23 23 24 24 24 23 23 23 23 23 23 23 23 24 23 23 23 21 21 22 22 23 23 23 23 22 22 22 22 22 23 23 23 23 23 24 25 25 25 25 24
Wind_Direction
158 158 159 158 158 157 156 156 158 161 165 167 168 171 176 183 186 188 195 205 211 214 216 220 234 248 270 289 310 328 342 351 357 360 2 1 360 358 355 352 349 346 342 340 339 337 336 336 335 334 334 335 335 335 336 337 337 337 336 336 335 334 332 331 329 328 327 326 325
159 160 161 161 161 160 159 158 159 161 164 168 172 176 182 189 193 195 197 200 202 203 203 206 216 233 258 306 338 350 354 358 1 3 3 2 0 358 355 352 349 346 343 341 339 338 337 336 335 334 334 334 334 334 335 336 337 337 336 335 334 333 331 330 328 327 326 325 324
160 161 162 163 163 163 161 160 161 163 165 169 176 181 185 189 192 192 190 189 190 192 195 200 203 208 286 360 1 2 1 2 3 3 3 2 360 357 354 351 349 347 344 342 339 338 337 336 334 334 334 334 334 334 335 336 336 336 335 334 333 332 330 329 327 326 325 324 323
159 161 162 163 163 164 163 163 164 166 168 172 177 181 183 184 184 184 182 183 183 187 194 200 195 180 15 7 3 1 1 2 2 2 1 360 358 355 353 351 348 346 344 342 339 337 336 335 334 333 333 334 334 334 335 336 336 335 333 332 332 331 329 328 327 326 324 323 322
158 159 160 160 161 161 162 164 165 167 169 173 174 175 176 178 178 177 179 182 185 191 197 200 201 298 354 356 356 357 358 360 360 360 358 357 355 353 351 349 347 345 343 341 339 337 336 334 334 333 334 334 334 335 335 335 335 333 332 331 331 330 329 327 326 325 324 322 321
155 156 157 158 158 159 160 162 164 164 166 169 170 169 169 171 174 176 180 184 191 197 201 208 241 312 337 344 349 353 356 358 359 357 356 354 353 351 349 347 345 343 342 340 338 337 335 335 334 334 334 335 334 335 335 335 334 332 331 330 330 329 329 327 326 325 324 322 321
154 154 155 156 157 158 158 159 159 160 161 164 166 166 167 169 174 178 184 191 198 202 206 228 272 310 327 337 344 350 354 357 357 356 354 352 350 349 347 345 343 342 340 339 338 336 336 335 335 335 335 335 334 334 335 334 333 331 330 329 329 329 328 327 326 326 324 322 321
152 153 154 155 156 155 155 154 154 155 157 162 166 168 170 173 178 183 190 196 199 204 221 253 288 311 325 335 343 350 354 355 355 354 352 350 348 347 345 343 341 340 339 338 337 336 336 336 335 335 335 335 334 333 334 333 332 331 330 329 328 328 328 327 327 326 324 322 320
150 151 152 152 153 152 151 151 152 154 157 162 167 171 175 179 183 188 192 196 205 219 242 271 298 316 328 338 346 351 354 353 352 351 350 349 347 345 343 342 340 339 338 338 337 337 336 336 335 335 335 334 333 332 332 332 331 330 329 328 327 327 328 328 328 326 324 322 319
149 150 150 150 150 150 150 151 153 157 161 164 168 173 177 181 187 191 197 205 218 235 258 285 306 321 333 343 349 352 352 351 350 349 348 348 346 344 342 340 339 338 337 338 338 337 336 336 335 335 335 334 333 332 331 331 331 329 328 327 327 327 327 328 328 326 324 321 318
149 149 149 149 150 151 152 153 155 158 162 165 167 171 175 180 185 191 200 212 226 246 272 298 316 329 339 347 350 351 350 349 349 348 347 346 345 343 341 339 338 337 337 337 337 337 337 336 335 334 334 333 332 331 331 331 330 329 328 327 327 327 327 327 327 326 323 320 318
149 149 150 150 151 152 153 154 155 158 161 163 165 168 172 177 182 190 200 216 235 261 286 310 327 340 346 349 350 349 349 349 349 348 347 345 344 342 340 338 337 337 336 337 337 337 336 336 335 334 333 333 332 331 330 330 329 328 327 327 327 326 326 326 326 325 322 319 318
149 149 150 150 152 153 154 153 154 156 159 162 164 168 173 178 184 193 206 225 248 275 299 325 341 348 349 349 348 348 349 349 348 347 346 344 342 341 339 338 337 337 336 337 337 337 337 336 335 334 333 332 331 331 330 329 328 327 326 326 326 325 325 325 325 323 321 319 319
150 150 150 151 152 153 153 153 154 157 160 163 167 172 177 183 190 201 218 237 263 289 322 346 353 351 349 348 348 348 349 349 348 346 344 343 341 339 338 337 336 336 336 337 337 337 337 336 335 334 333 332 331 330 330 329 328 326 325 325 324 324 324 325 324 322 321 320 320
150 150 151 152 153 153 153 154 155 159 162 166 170 176 183 190 199 211 228 243 263 318 2 3 359 353 350 349 348 348 348 348 346 344 342 341 339 338 336 335 335 336 336 336 337 337 336 336 335 334 333 331 330 330 329 328 327 326 325 324 324 324 323 323 323 321 320 320 321
150 151 152 153 154 155 155 156 158 161 166 169 173 180 187 196 205 215 221 222 196 35 19 8 359 353 351 350 349 348 347 346 344 343 341 339 337 336 335 334 335 336 336 336 336 336 336 336 335 334 333 331 330 329 328 327 326 325 325 324 324 323 323 322 322 320 320 320 321
150 152 154 156 157 158 159 160 161 164 168 171 175 181 187 194 198 196 187 161 81 32 14 4 358 353 351 350 350 348 346 344 342 341 338 336 335 334 333 334 335 335 336 336 336 336 336 335 335 334 333 332 330 328 327 326 325 324 324 324 323 323 322 322 320 319 319 319 320
152 155 157 160 161 162 163 164 165 167 169 172 174 178 181 181 177 168 150 112 46 15 4 358 356 352 350 349 348 347 345 342 340 338 336 334 333 332 332 333 335 336 336 336 336 336 335 335 335 334 333 331 329 327 326 325 324 324 323 323 323 322 322 321 319 318 318 319 320
154 157 160 162 164 165 166 167 167 168 169 171 172 171 169 163 155 143 122 75 26 5 356 352 351 350 348 347 346 345 342 339 336 334 333 332 331 332 333 334 335 336 336 336 336 336 336 335 335 334 333 330 328 327 326 325 324 323 323 323 322 322 321 320 318 317 317 318 319
156 158 161 164 165 166 166 166 167 167 167 167 165 162 156 148 139 124 94 33 5 355 350 348 347 347 346 346 343 341 339 337 334 332 331 331 331 332 334 335 336 336 337 337 337 336 336 335 335 333 331 329 327 326 325 324 323 323 322 322 321 321 320 319 317 317 317 317 317
156 158 160 162 163 164 164 164 165 165 164 162 158 153 146 137 127 100 43 2 350 346 345 345 345 345 344 343 341 338 336 334 332 330 330 331 332 334 335 336 337 337 337 338 338 337 337 336 334 332 330 328 326 325 324 323 322 322 321 321 320 320 319 318 317 316 316 316 316
155 156 158 159 160 160 161 161 162 162 160 156 151 145 140 133 118 61 360 346 342 341 342 344 344 344 342 340 337 335 333 331 330 330 331 332 333 335 337 338 338 338 338 339 338 338 336 334 332 330 328 326 325 324 323 322 321 321 320 320 320 319 318 317 316 315 315 314 314
153 154 155 156 157 158 159 160 160 158 155 151 147 142 137 131 100 350 341 338 338 340 341 343 343 342 339 337 334 333 331 331 330 331 332 334 335 337 338 339 340 339 339 339 339 337 335 332 330 328 327 326 324 323 323 322 321 321 320 320 319 318 318 317 316 315 314 313 312
152 153 154 155 156 158 158 158 157 155 152 148 146 141 137 126 5 338 336 336 338 340 341 342 341 339 337 334 333 332 332 332 332 333 334 335 337 338 340 341 341 340 340 339 338 336 333 331 329 328 327 326 325 323 323 322 322 321 321 320 319 318 317 316 315 314 313 312 311
153 153 154 155 157 157 157 156 154 152 149 147 143 139 130 65 342 336 335 336 339 340 341 340 339 337 334 333 333 333 333 334 335 335 336 337 338 340 341 341 341 340 339 338 336 333 331 330 329 328 327 326 325 324 323 323 322 322 321 320 319 318 317 316 315 314 313 312 311
154 154 155 156 157 156 155 154 152 150 148 145 139 131 101 357 338 334 334 336 338 339 339 338 337 335 334 334 334 334 335 336 337 337 338 338 339 340 341 341 341 340 339 337 335 332 331 331 330 329 328 327 326 326 325 324 323 323 322 321 319 318 317 316 315 314 313 311 311
155 156 157 158 158 157 154 152 151 149 145 140 131 106 3 339 333 333 333 335 336 338 337 336 336 335 335 335 335 336 337 338 339 339 339 340 340 340 340 340 340 339 338 337 334 332 332 332 331 331 330 329 328 327 326 325 324 323 322 321 320 318 317 315 314 313 312 312 311
158 159 160 160 159 157 155 153 151 148 143 136 114 356 334 333 331 331 333 334 335 336 336 336 336 336 336 336 336 337 337 339 340 340 340 340 340 340 340 340 339 339 338 337 335 333 333 332 332 332 332 331 330 328 327 326 325 324 323 322 320 318 317 315 314 313 312 312 313
160 162 162 162 160 157 156 155 152 150 148 156 315 322 324 327 329 330 332 334 335 336 337 337 336 336 336 336 337 337 338 339 340 341 341 341 340 340 339 339 339 339 339 338 335 334 334 333 333 333 333 332 331 330 328 327 325 324 323 321 320 318 316 315 314 314 314 314 315
164 165 165 163 161 158 157 156 156 161 189 270 301 313 320 326 330 333 334 335 336 337 336 336 335 336 336 336 337 337 338 339 340 341 341 340 339 339 339 339 339 339 340 338 335 334 334 334 334 334 334 333 332 330 329 327 326 324 323 321 319 318 317 317 317 317 317 317 316
167 168 167 164 161 158 157 160 169 191 238 277 299 312 323 330 335 337 337 337 336 336 336 335 335 335 336 336 337 337 338 339 340 341 340 339 338 338 338 338 339 339 339 338 335 334 334 334 335 335 335 334 333 331 330 328 326 324 322 321 320 320 320 320 320 320 320 318 317
168 168 166 163 160 157 160 167 187 219 255 284 304 321 331 336 338 339 339 338 337 336 336 336 335 335 335 336 337 337 338 338 339 339 339 338 337 337 337 338 338 339 338 336 335 334 335 335 335 335 335 335 333 332 330 329 327 325 323 322 322 323 323 324 324 323 321 319 318
164 164 162 159 157 157 164 180 206 238 270 299 321 334 339 340 340 341 341 340 338 336 336 335 335 335 335 335 336 336 337 338 338 338 338 338 337 337 337 337 337 338 337 336 335 335 335 336 336 336 335 335 334 333 331 330 328 326 325 325 325 326 327 327 326 323 321 320 319
158 157 156 155 155 160 172 193 223 259 297 327 341 345 345 344 344 344 343 341 338 336 335 335 334 334 334 335 335 335 336 336 337 337 337 337 337 336 336 336 336 337 337 336 335 335 336 336 336 336 336 335 334 334 332 331 329 327 327 327 328 329 329 328 325 323 322 321 320
154 154 153 154 158 166 180 204 245 304 338 351 354 353 351 349 347 346 343 340 337 334 334 334 334 334 335 335 336 336 336 336 336 336 337 337 337 336 335 335 336 337 338 337 336 336 336 337 336 336 336 336 335 334 333 332 330 328 328 328 329 329 329 327 326 324 322 320 318
153 154 155 156 161 169 178 207 349 1 4 2 359 356 353 351 348 346 343 339 336 334 334 334 335 335 336 337 337 336 336 336 336 336 336 337 336 335 334 334 335 337 338 338 337 337 337 337 336 336 336 336 335 335 334 332 330 329 328 328 327 328 327 326 324 322 320 317 315
153 154 155 154 153 148 111 43 25 17 11 5 1 357 353 349 347 344 342 338 336 335 334 335 335 336 337 338 337 336 336 336 336 336 336 337 336 335 334 333 334 337 339 339 338 337 336 336 336 336 336 336 336 336 335 333 330 328 327 326 326 325 325 324 322 319 317 314 311
150 149 146 138 122 95 63 40 27 18 11 6 0 356 351 347 344 342 341 339 336 335 334 334 335 336 337 337 336 335 335 336 336 336 336 337 337 336 334 333 334 336 339 340 338 336 336 335 335 336 336 336 336 335 334 332 330 328 326 325 323 322 322 320 319 316 314 311 308
142 137 126 110 89 69 51 37 26 18 10 4 359 354 349 345 341 340 339 338 336 335 334 333 334 335 336 336 335 334 335 336 337 337 337 337 337 336 335 333 334 336 339 339 338 336 335 334 334 335 335 335 335 335 333 331 329 327 325 323 321 320 319 318 317 314 311 309 307
130 120 104 87 72 59 45 36 27 18 10 2 356 351 346 342 338 337 336 336 336 335 334 334 334 335 335 336 335 335 335 335 337 338 338 337 337 336 336 335 335 336 338 339 337 335 333 333 334 334 335 334 334 334 332 330 327 325 323 321 320 318 317 316 314 312 309 308 308
119 104 89 75 64 52 42 33 25 17 8 360 353 347 342 338 335 335 335 335 335 335 335 334 334 334 335 336 335 335 335 335 337 338 339 338 338 338 337 337 336 336 337 337 335 333 332 332 333 333 334 333 333 332 331 329 326 323 321 319 318 316 315 314 311 310 308 308 310